{"data":{"norad_id":87163,"epoch":"2026-09-07T03:17:31.224480Z","epoch_age_seconds":1169027,"freshness":"AGED","line1":"1 87163U          26250.13716695  .00001409  00000+0  40892-3 0  9997","line2":"2 87163  65.5980 293.2335 0655519 305.8784  48.3082 13.65343690614144","mean_motion":13.6534369,"eccentricity":0.0655519,"inclination_deg":65.598,"raan_deg":293.2335,"arg_perigee_deg":305.8784,"mean_anomaly_deg":48.3082,"bstar":0.00040892,"rev_number":61414,"period_min":105.46794997822,"perigee_km":531.61353646841,"apogee_km":1501.056946309,"semimajor_km":7394.4722413887,"source":"CELESTRAK","updated_at":"2026-09-20T09:00:32.450838Z"}}